TimePDT,TemperatureF,Dew PointF,Humidity,Sea Level PressureIn,VisibilityMPH,Wind Direction,Wind SpeedMPH,Gust SpeedMPH,PrecipitationIn,Events,Conditions,WindDirDegrees,DateUTC
12:52 AM,62.1,37.0,39,29.93,10.0,North,5.8,-,N/A,,Clear,10,2013-08-22 07:52:00
1:52 AM,61.0,36.0,39,29.93,10.0,North,5.8,-,N/A,,Clear,10,2013-08-22 08:52:00
2:52 AM,57.9,36.0,44,29.92,10.0,North,6.9,-,N/A,,Partly Cloudy,360,2013-08-22 09:52:00
3:52 AM,57.9,37.0,46,29.93,10.0,NNE,3.5,-,N/A,,Clear,20,2013-08-22 10:52:00
4:52 AM,57.0,37.0,47,29.92,10.0,North,6.9,-,N/A,,Clear,360,2013-08-22 11:52:00
5:52 AM,59.0,37.0,44,29.92,10.0,NE,3.5,-,N/A,,Clear,50,2013-08-22 12:52:00
6:52 AM,61.0,37.0,41,29.93,10.0,NNE,5.8,-,N/A,,Clear,30,2013-08-22 13:52:00
7:52 AM,66.0,37.9,36,29.93,10.0,North,5.8,-,N/A,,Clear,10,2013-08-22 14:52:00
8:52 AM,72.0,41.0,33,29.92,10.0,North,8.1,-,N/A,,Clear,10,2013-08-22 15:52:00
9:52 AM,79.0,39.9,25,29.91,10.0,North,5.8,-,N/A,,Clear,360,2013-08-22 16:52:00
10:52 AM,82.0,39.0,22,29.91,10.0,Variable,3.5,-,N/A,,Clear,0,2013-08-22 17:52:00
11:52 AM,86.0,39.0,19,29.89,10.0,NW,3.5,-,N/A,,Clear,310,2013-08-22 18:52:00
12:52 PM,89.1,37.0,16,29.86,10.0,Variable,4.6,-,N/A,,Clear,0,2013-08-22 19:52:00
1:52 PM,91.0,36.0,14,29.84,10.0,Calm,Calm,-,N/A,,Clear,0,2013-08-22 20:52:00
2:52 PM,91.0,36.0,14,29.82,10.0,WSW,8.1,-,N/A,,Clear,250,2013-08-22 21:52:00
3:52 PM,90.0,39.9,17,29.81,10.0,SW,8.1,-,N/A,,Clear,230,2013-08-22 22:52:00
4:52 PM,89.1,37.9,16,29.78,10.0,WSW,6.9,-,N/A,,Clear,240,2013-08-22 23:52:00
5:52 PM,88.0,37.9,17,29.78,10.0,WSW,9.2,-,N/A,,Clear,240,2013-08-23 00:52:00
6:14 PM,87.8,39.2,18,29.79,10.0,WSW,6.9,-,N/A,Thunderstorm,Clear,240,2013-08-23 01:14:00
6:36 PM,87.8,39.2,18,29.78,10.0,West,11.5,-,N/A,,Clear,270,2013-08-23 01:36:00
6:52 PM,86.0,42.1,21,29.76,10.0,West,11.5,-,N/A,,Clear,270,2013-08-23 01:52:00
7:52 PM,82.9,43.0,24,29.76,10.0,SW,6.9,-,N/A,,Clear,220,2013-08-23 02:52:00
8:52 PM,78.1,42.1,28,29.77,10.0,SSE,3.5,-,N/A,,Clear,160,2013-08-23 03:52:00
9:52 PM,75.9,46.9,36,29.77,10.0,SSE,3.5,-,N/A,,Clear,160,2013-08-23 04:52:00
10:52 PM,75.0,48.0,38,29.76,10.0,SSE,6.9,-,N/A,,Scattered Clouds,160,2013-08-23 05:52:00
11:52 PM,71.1,52.0,51,29.75,10.0,SE,12.7,-,N/A,,Clear,140,2013-08-23 06:52:00